Wind_Speed
8 6 9 11 11 12 14 14 12 10 12 14 12 9 10 10 8 9 13 15 10 11 11 12 12 12 11 8 10 13 14 15 18 19 16 15 14 14 15 15 15 16 15 17 22 26 30 31 31 33 33 32 34 36 36 38 37 34 34 34 33 34 35 33 31 31 30 29 27 26 24 22 23 24 21 19 19 18 18 20 20 17 17 14 13 17
8 10 13 14 12 12 14 14 13 13 14 14 12 10 8 9 9 12 15 15 11 9 9 13 12 12 12 10 10 14 16 15 18 18 16 17 15 13 15 16 16 14 14 16 18 22 27 29 30 31 33 33 34 35 36 39 38 36 34 34 34 35 36 34 33 33 31 30 29 27 26 24 23 24 23 20 19 20 18 18 21 19 18 16 13 16
9 13 16 14 12 13 13 14 15 16 15 12 9 8 8 7 6 11 15 12 11 7 6 13 11 9 13 12 10 13 14 14 18 18 16 18 16 14 15 15 15 14 15 16 16 18 24 29 30 29 31 33 34 36 36 38 39 37 35 33 33 35 36 35 33 33 32 31 30 28 26 25 23 23 25 21 18 20 19 17 20 21 19 17 15 15
10 13 15 13 12 15 15 14 16 15 12 10 8 8 8 10 8 6 10 10 12 9 7 11 9 7 11 13 11 12 12 14 19 18 17 18 17 16 16 16 16 16 16 17 17 16 19 27 29 28 30 31 33 35 34 37 38 37 37 36 35 35 37 37 34 33 32 30 30 27 24 24 23 22 23 21 18 18 20 19 20 22 20 18 16 16
13 9 11 15 15 16 16 15 15 11 9 11 11 10 9 12 12 9 8 8 10 10 8 9 6 5 8 10 11 11 11 15 19 19 17 17 17 16 16 16 17 18 17 18 19 17 16 21 27 29 31 30 32 35 35 38 38 36 38 39 37 37 37 38 36 34 32 29 29 27 24 22 22 23 24 23 22 20 20 22 24 24 21 19 17 16
15 9 12 17 16 16 16 14 15 12 8 10 14 15 14 13 14 14 13 9 5 7 8 9 4 4 7 10 10 11 12 14 19 21 19 18 17 16 15 15 17 17 16 18 20 19 16 18 24 29 31 30 31 35 36 40 39 36 38 39 38 38 37 38 38 36 33 30 30 30 27 26 24 25 28 27 27 26 23 22 25 25 22 20 17 17
11 11 11 16 16 17 16 13 15 15 8 8 11 16 18 16 14 15 15 9 4 5 9 11 6 3 5 9 10 12 15 15 18 22 20 18 17 17 15 14 16 15 15 16 17 19 18 18 21 25 30 31 31 34 36 38 39 37 36 38 39 39 37 38 38 38 36 32 33 32 31 30 26 25 29 30 29 29 26 23 24 25 23 21 19 19
11 15 14 15 16 15 14 11 14 16 11 7 10 15 18 18 17 16 14 9 4 5 9 13 9 4 4 8 11 12 13 12 16 20 20 18 18 20 18 16 17 16 16 16 15 18 18 18 20 25 31 33 32 34 35 36 38 38 38 37 39 39 37 38 39 40 38 34 34 34 31 31 29 26 28 31 29 27 27 24 23 25 25 23 22 22
11 17 17 16 15 11 11 12 13 15 12 8 9 13 15 17 18 16 12 8 5 2 6 10 11 5 4 6 9 11 11 10 12 18 21 20 19 20 20 19 19 18 18 18 17 19 19 18 23 28 31 33 32 34 35 36 38 38 39 38 38 38 37 38 39 40 40 37 35 35 33 30 30 27 26 29 30 26 26 26 24 25 27 26 24 23
9 14 15 15 13 10 11 13 14 15 12 9 11 11 10 14 15 14 10 7 5 3 3 8 11 7 3 5 7 9 10 10 10 11 17 22 21 21 22 21 20 18 17 17 18 18 19 22 27 29 30 32 32 34 35 36 36 37 37 38 38 38 37 38 40 41 41 39 36 35 34 32 30 28 24 26 30 28 25 27 27 26 28 29 26 24
10 10 13 14 11 10 11 13 15 16 13 10 11 10 8 8 9 9 8 5 5 5 4 7 10 9 5 5 7 9 11 14 13 10 13 21 23 21 21 20 20 18 16 16 17 17 19 24 29 29 30 32 32 33 35 35 35 37 36 37 39 39 38 38 40 41 41 40 38 37 36 34 32 30 27 25 30 31 27 28 30 28 28 30 28 25
14 11 10 11 12 12 10 12 15 16 15 11 8 8 7 5 4 4 4 5 6 6 5 7 8 7 5 6 8 12 15 18 17 13 14 22 23 19 19 19 19 18 16 16 16 16 17 19 23 26 28 32 32 32 35 36 36 37 37 38 39 38 38 38 40 41 41 40 39 38 37 36 33 32 31 28 30 33 31 29 31 30 29 30 30 27
13 13 10 10 14 15 12 9 10 12 13 11 7 6 6 3 3 4 3 6 6 6 6 7 8 7 5 5 9 12 14 17 17 14 16 23 23 20 19 19 17 17 17 17 15 15 15 15 17 20 24 30 32 32 35 37 37 37 39 39 39 40 39 39 40 41 41 41 40 39 37 37 35 33 33 32 30 33 34 31 30 30 30 30 31 31
9 11 14 13 11 15 15 8 7 9 9 11 9 6 7 5 5 6 4 3 4 5 6 7 8 6 4 5 7 9 10 13 17 16 16 24 26 23 22 21 18 18 18 16 16 15 15 16 17 19 23 29 31 32 35 37 37 37 38 40 41 41 41 40 40 42 42 42 41 40 39 38 37 35 34 34 32 33 34 33 32 31 31 31 32 33
9 9 13 16 8 12 17 12 7 8 8 11 10 6 7 6 4 5 3 3 3 3 6 9 7 4 4 4 5 7 9 8 13 15 14 22 26 22 21 21 19 19 18 16 17 17 17 18 19 21 25 28 31 33 33 35 37 37 38 40 42 41 42 41 40 42 43 43 42 41 40 39 38 37 35 35 34 33 34 34 34 32 31 31 31 32
10 9 9 14 11 11 18 15 10 9 8 8 8 7 7 6 4 3 3 4 3 1 3 7 5 1 3 5 5 8 11 9 8 12 12 18 24 21 18 20 19 18 17 16 16 17 18 18 19 23 26 29 32 33 32 33 36 37 38 40 42 42 43 43 41 42 44 44 43 41 41 39 39 38 36 35 34 33 34 35 35 34 32 32 31 30
9 8 8 13 17 16 16 15 14 10 6 6 9 9 6 6 5 3 3 4 4 2 3 3 4 3 4 8 7 8 12 12 11 10 9 16 25 23 18 19 19 17 18 18 17 17 17 17 19 24 27 29 32 34 35 36 37 37 37 38 40 40 41 42 41 42 43 43 42 41 41 40 39 39 37 37 36 35 34 34 35 35 33 32 31 30
6 6 8 14 19 20 15 15 16 13 8 6 9 9 5 5 6 4 2 3 4 4 4 6 8 6 5 6 8 10 12 12 13 14 11 12 22 22 19 19 20 20 19 18 18 17 17 17 18 23 29 31 35 38 39 38 36 36 36 37 39 39 40 41 41 41 41 42 43 42 42 42 41 41 40 39 39 37 34 33 33 34 33 32 32 31
8 5 8 14 18 18 14 14 13 14 14 9 7 9 7 5 6 5 4 4 5 5 4 8 11 9 7 7 9 14 16 12 11 15 15 13 18 19 19 20 20 19 18 16 17 16 16 17 18 22 28 32 36 38 38 36 34 34 36 37 39 40 41 42 41 40 39 39 41 42 44 45 43 43 42 40 38 37 35 34 32 32 33 33 31 31
11 5 5 11 17 15 11 11 10 12 15 12 7 9 8 6 5 5 4 2 4 4 4 6 7 7 7 8 13 17 18 14 9 10 12 13 18 19 18 19 18 17 16 16 16 17 17 18 20 25 30 32 35 35 35 35 35 36 37 37 39 40 40 40 39 38 37 37 38 40 42 44 44 43 42 40 39 37 37 36 34 33 33 33 33 31
9 7 6 9 13 14 10 10 12 13 13 11 8 8 9 6 4 4 4 3 3 2 3 4 5 5 6 7 13 17 17 15 12 10 9 10 16 19 18 19 18 17 17 17 16 17 17 17 20 27 31 32 33 34 35 35 35 36 37 38 39 40 39 40 40 39 39 38 38 39 40 41 43 42 41 40 39 39 39 38 36 35 33 32 33 32
7 7 8 8 8 10 12 13 14 15 14 11 8 6 9 8 6 6 5 5 5 3 3 4 3 6 6 4 9 16 16 14 13 12 9 8 13 18 19 19 20 19 18 19 17 17 17 17 18 23 27 29 29 31 34 35 34 35 37 38 39 39 39 40 40 40 40 39 39 40 40 40 41 41 40 39 39 39 39 38 37 36 34 33 33 34
12 6 9 9 8 7 12 15 15 16 16 13 10 7 8 9 7 6 6 6 6 5 5 3 3 6 6 5 7 14 14 12 12 11 9 7 9 15 19 20 19 19 19 19 18 17 16 16 17 21 24 26 27 29 33 34 34 35 37 38 37 38 39 40 41 41 41 39 40 40 40 40 40 40 39 38 39 39 38 38 38 37 35 35 34 34
13 6 5 8 8 9 10 14 17 16 15 12 11 9 7 9 10 6 4 6 6 6 6 3 3 5 7 6 2 11 12 11 10 9 9 8 7 13 21 21 18 16 18 19 17 15 16 15 15 17 18 21 25 28 31 32 32 34 34 34 35 37 39 40 40 41 41 40 40 40 40 40 40 40 40 39 39 39 38 37 37 37 37 36 35 34
10 7 4 5 6 6 8 11 15 15 13 9 10 12 10 10 13 9 4 5 5 7 8 4 3 6 7 7 7 10 11 12 11 10 9 8 7 12 19 20 19 17 17 19 18 15 17 16 15 15 14 17 23 27 30 31 30 31 31 31 32 35 37 39 39 40 41 41 41 40 40 40 40 40 41 41 39 39 38 37 36 37 37 37 36 35
8 8 5 4 5 4 4 6 8 11 11 8 9 15 14 13 14 11 5 4 4 8 9 6 4 6 5 4 7 7 7 9 10 7 6 5 5 10 15 17 19 18 16 20 20 18 17 16 15 16 14 17 23 26 28 30 30 30 30 31 31 32 35 37 38 39 40 41 41 40 41 40 40 40 41 42 41 39 39 38 36 37 38 38 37 36
6 7 7 7 7 6 6 5 5 11 13 10 11 15 16 16 13 9 7 5 4 6 6 6 6 4 2 3 6 5 5 5 6 7 8 6 6 9 13 14 17 17 15 18 19 18 17 16 16 17 16 17 23 26 27 29 30 31 31 31 32 32 33 35 37 38 39 40 40 40 41 42 42 42 42 42 42 40 39 39 38 38 38 39 38 36
6 6 8 10 10 10 12 13 8 10 18 17 15 14 16 19 17 10 9 8 6 7 5 7 8 7 5 2 4 5 5 7 8 9 8 6 8 8 12 16 16 14 13 16 18 18 18 17 16 17 16 17 22 25 27 29 31 33 32 32 33 33 33 35 36 37 37 38 39 41 42 43 43 43 42 42 42 41 40 40 39 38 38 38 39 38
7 6 7 11 13 12 13 14 12 7 11 17 18 16 15 19 21 15 9 10 9 7 5 7 10 9 6 5 5 6 6 10 10 10 9 8 9 10 10 16 16 13 12 15 17 17 17 15 15 16 16 16 20 24 26 29 31 32 32 32 34 35 35 35 36 37 37 37 39 41 42 42 41 42 42 41 41 42 41 40 40 39 38 38 39 40
7 6 13 16 14 13 12 10 10 8 3 7 14 18 15 15 21 19 11 9 10 8 7 8 12 10 7 6 5 3 8 11 9 10 10 9 12 12 10 12 13 12 13 14 14 15 15 15 15 15 15 15 17 22 25 27 30 31 31 32 34 35 35 35 36 37 37 37 38 40 41 41 40 40 40 40 41 43 42 41 40 39 39 39 40 40
9 8 16 16 9 7 8 9 12 11 6 1 5 14 16 14 18 20 14 9 9 8 9 10 10 8 6 6 5 7 11 11 9 10 10 10 11 12 11 11 11 11 12 13 13 12 13 13 13 13 14 14 17 22 24 25 28 30 30 31 32 34 35 34 35 37 37 37 37 39 39 40 40 39 40 41 41 42 43 41 40 40 39 39 39 39
10 9 12 11 6 5 4 6 13 14 7 4 4 6 9 8 12 17 15 9 7 9 8 8 7 5 5 8 9 10 12 12 11 10 10 9 9 10 10 10 9 10 11 12 12 11 11 12 13 13 14 14 17 22 23 23 26 28 29 30 30 32 34 34 34 36 38 37 37 39 39 39 40 39 40 41 41 41 42 42 40 39 39 39 39 39
9 9 9 8 7 6 5 5 12 11 6 4 6 3 2 3 5 14 15 10 7 9 8 5 5 7 7 10 10 12 13 12 10 9 9 10 11 11 9 8 9 8 8 9 10 9 10 10 10 11 12 14 17 21 23 24 24 26 29 31 30 31 33 34 33 33 37 38 38 39 40 39 39 39 39 41 41 41 40 40 40 39 39 40 39 39
10 10 8 6 5 7 9 9 8 5 3 4 2 2 5 5 6 9 17 15 9 6 7 7 5 4 7 11 11 12 12 10 8 8 8 9 9 9 9 8 9 8 7 7 7 6 8 8 7 9 11 14 17 19 20 22 22 25 28 30 30 31 32 33 32 32 35 38 38 39 40 40 39 39 39 39 40 39 38 39 40 40 39 39 39 39
11 10 7 4 4 6 8 7 3 2 5 4 3 7 6 4 5 4 8 9 6 3 4 10 9 7 8 10 11 12 12 12 10 10 11 10 9 10 11 9 8 8 8 7 8 6 6 7 6 6 7 9 13 15 17 18 19 21 24 27 29 30 30 31 31 30 33 37 38 38 40 41 40 39 39 38 38 38 38 38 39 39 39 38 39 40
10 8 5 4 4 4 4 2 3 3 6 3 6 9 8 4 2 9 15 9 10 14 8 6 14 14 11 10 10 12 14 14 13 13 15 15 13 12 12 12 12 13 11 9 9 8 8 9 9 7 7 7 4 9 16 19 19 18 20 22 25 25 27 30 30 30 32 35 37 38 39 40 40 39 38 37 36 36 37 38 38 39 39 38 37 38
10 7 4 4 4 3 4 4 3 2 5 5 8 11 12 10 3 5 11 12 17 22 20 7 11 18 15 11 10 11 14 15 13 11 14 15 14 13 14 14 15 14 13 11 11 11 12 12 12 10 10 10 9 4 3 11 17 20 19 20 21 21 22 25 27 29 30 33 37 37 38 39 39 38 38 37 36 36 37 38 38 38 38 37 36 35
11 7 4 4 3 4 4 4 2 2 2 7 13 16 16 15 8 7 13 13 17 21 22 16 7 11 15 13 10 10 13 15 10 7 10 13 13 13 14 14 13 12 11 11 10 12 15 13 12 12 11 10 10 10 8 5 6 13 18 20 22 21 21 21 24 27 28 30 35 37 36 38 38 38 38 37 37 37 36 36 36 36 36 36 36 35
12 9 5 4 4 5 4 2 2 1 2 10 18 18 18 18 11 6 13 11 14 18 18 18 16 13 11 11 11 10 11 11 7 5 8 11 11 12 13 12 12 11 11 12 12 12 14 13 12 13 13 13 13 13 12 11 8 5 11 17 22 23 22 23 24 25 25 27 31 35 36 36 38 38 37 38 38 36 35 35 34 34 34 34 34 34
9 6 4 3 4 5 4 2 2 0 3 14 20 18 18 19 9 7 9 5 11 16 15 17 18 18 15 12 12 11 9 8 6 5 8 10 11 12 13 12 11 10 10 14 16 17 18 17 15 14 15 16 17 16 16 16 15 10 6 9 15 20 24 27 28 26 24 24 27 33 36 36 37 38 37 37 36 34 33 33 32 31 31 32 32 32
4 3 3 3 4 5 4 1 1 1 4 14 19 18 18 14 4 9 6 2 8 11 12 15 16 16 15 13 11 10 8 8 8 9 11 12 12 13 13 12 12 13 12 14 18 20 19 18 17 16 17 19 18 17 17 18 17 15 12 8 7 10 14 22 28 29 26 25 26 30 34 35 36 37 36 35 34 33 31 31 31 30 30 30 29 29
1 2 1 1 3 4 2 0 1 1 5 14 17 16 15 8 5 5 1 3 6 10 12 14 14 13 13 13 12 10 10 11 13 13 13 13 12 11 11 10 10 12 14 16 19 20 18 16 16 17 17 17 17 17 18 17 16 16 15 10 7 6 6 9 22 31 30 27 27 29 32 34 34 34 34 33 32 31 29 29 29 29 29 28 28 28
2 2 1 1 2 3 1 2 2 1 7 16 16 13 12 8 4 1 2 3 9 12 11 12 12 12 11 11 12 11 11 13 14 14 13 12 12 12 11 11 10 10 12 15 17 18 17 14 13 14 14 15 14 14 15 15 16 16 13 10 10 7 6 6 14 29 32 30 30 30 32 33 33 32 32 31 31 30 28 27 28 27 27 28 27 26
3 3 2 2 3 3 2 2 2 1 5 11 10 8 7 5 5 2 4 6 8 10 9 9 10 12 11 10 10 10 11 11 12 12 12 11 12 12 12 12 11 10 11 13 15 17 17 14 11 10 11 12 13 13 14 14 13 13 11 11 13 10 7 6 5 20 29 30 30 30 31 32 32 32 31 29 29 29 27 26 27 26 27 28 27 26
2 1 1 1 2 2 1 3 2 2 5 7 7 5 7 6 8 8 8 7 7 8 8 8 9 12 12 10 9 9 9 10 10 11 10 9 10 10 10 10 11 12 11 13 14 17 16 13 11 11 11 13 14 14 17 16 13 13 14 13 13 11 8 8 2 11 20 24 25 27 29 30 30 29 29 28 28 28 27 26 26 25 25 26 26 25
6 4 0 1 2 3 2 3 1 4 7 7 5 4 7 8 9 9 8 6 7 7 7 8 9 10 11 10 9 9 9 10 10 9 9 8 8 9 8 9 10 12 12 11 12 15 15 13 12 11 11 13 14 14 16 16 14 14 15 15 14 12 9 7 3 6 13 17 19 22 24 26 26 26 26 26 27 27 27 26 25 24 24 25 25 24
6 7 5 2 2 3 2 3 7 7 5 5 5 3 4 6 8 7 6 5 6 8 8 9 10 10 10 10 10 9 9 10 10 8 7 7 7 7 7 7 8 10 11 10 9 11 13 11 9 9 9 10 13 14 13 13 14 16 16 15 15 12 8 6 4 7 12 14 16 19 22 23 23 23 23 23 24 25 25 24 24 24 24 24 24 23
5 6 6 4 4 3 2 5 8 8 5 5 4 4 5 6 7 7 6 6 7 9 10 10 10 10 10 10 11 10 10 10 9 8 7 6 5 6 6 5 6 8 12 13 11 10 10 9 8 7 7 8 10 12 13 12 14 16 16 15 14 12 8 5 4 6 11 15 16 18 21 22 22 22 22 20 19 19 21 23 24 24 24 23 23 22
5 5 7 7 5 3 2 4 9 9 7 5 7 9 7 6 7 8 8 8 8 9 10 11 10 10 10 11 11 11 10 9 8 8 7 7 4 5 5 5 6 8 11 12 11 8 7 8 8 7 7 7 8 9 10 12 13 16 17 16 14 13 9 3 2 3 7 11 14 16 18 20 21 21 20 17 14 13 13 16 19 20 19 19 20 21
5 5 6 7 5 4 4 7 10 8 6 7 10 12 9 7 7 7 7 8 7 8 9 10 10 9 10 10 10 10 9 8 8 7 7 6 4 3 3 5 7 9 9 11 11 7 6 6 7 6 6 7 7 8 9 10 11 13 16 16 15 13 9 4 2 3 4 6 8 12 15 16 16 18 19 19 19 17 15 12 12 14 14 12 14 18
4 5 6 5 5 7 8 9 8 4 4 8 12 13 10 7 6 6 5 5 6 6 5 6 8 8 8 8 8 8 7 7 8 7 6 6 7 7 5 4 6 8 9 10 9 5 5 5 5 6 7 7 7 8 8 9 9 10 14 16 15 12 8 5 8 9 8 7 6 10 14 14 13 16 20 22 22 24 25 24 22 20 19 16 14 14
Wind_Direction
201 223 220 216 210 203 210 219 228 229 229 237 244 238 211 205 223 218 228 240 206 168 178 179 181 200 206 180 150 147 147 151 162 168 170 172 175 173 172 176 176 178 182 186 190 184 178 179 176 175 177 174 172 174 177 178 179 179 179 178 177 178 181 184 182 178 178 180 181 183 186 186 185 188 191 194 197 195 197 201 202 207 206 204 199 192
201 225 226 217 210 208 208 213 225 232 237 239 246 259 237 212 216 214 225 230 195 169 178 177 185 194 186 185 171 162 165 163 165 172 171 171 176 175 173 175 174 175 177 178 187 187 179 177 175 173 174 173 173 174 176 177 179 179 179 179 177 177 180 184 183 179 179 181 182 184 187 186 183 187 194 196 194 195 200 202 201 204 204 203 203 198
203 228 224 213 206 213 213 208 215 226 236 239 241 260 260 253 244 218 226 218 171 163 179 175 188 188 170 184 193 175 172 169 171 173 168 171 176 177 175 172 170 169 172 176 182 188 181 176 176 174 174 175 174 174 174 176 179 180 180 180 178 177 179 183 183 181 182 184 186 186 187 189 187 188 195 197 192 193 200 205 204 202 203 205 206 204
207 226 216 210 207 209 215 214 211 217 231 239 236 243 251 257 268 236 222 202 165 160 169 171 187 190 169 182 198 189 175 167 174 174 164 170 179 180 176 171 171 169 171 176 179 188 183 175 177 178 177 177 173 173 174 174 177 180 183 183 180 179 180 182 184 183 182 184 187 188 188 191 194 194 195 199 197 191 196 206 204 200 202 207 208 207
223 217 188 207 216 207 211 217 216 213 217 230 234 237 245 246 252 259 246 216 172 159 163 162 178 202 180 183 191 189 180 168 174 177 169 172 180 179 175 171 174 173 172 174 177 186 187 177 177 178 179 177 172 174 176 175 177 179 184 186 185 182 182 183 185 184 181 182 186 187 188 190 191 192 193 199 203 197 197 201 200 199 201 205 208 208
231 215 177 201 216 211 210 212 216 216 208 220 228 234 245 249 247 257 265 249 178 161 176 164 170 232 200 191 185 178 189 183 173 178 178 175 177 178 176 173 174 176 176 175 175 182 188 181 175 175 178 177 174 177 179 179 179 179 181 184 185 184 183 184 185 185 183 182 184 185 187 190 187 186 189 195 199 199 199 197 196 198 201 205 209 209
225 221 200 200 207 212 214 212 211 214 219 216 211 222 240 253 255 256 264 260 194 175 186 174 176 232 200 197 194 181 194 193 172 176 181 176 176 178 178 177 176 177 177 176 176 180 185 182 176 174 178 179 178 178 179 180 181 181 181 181 182 182 183 184 185 185 184 184 186 186 187 192 191 187 189 193 195 197 198 196 196 197 200 206 211 210
202 213 219 208 204 209 214 216 207 206 221 225 196 205 223 242 255 257 264 268 232 173 184 184 176 182 200 202 198 188 195 197 177 176 180 178 178 178 178 177 176 177 176 177 178 180 184 183 177 177 181 184 182 178 178 180 182 184 184 182 181 182 182 183 185 185 186 186 187 188 188 193 197 193 190 192 194 195 197 198 197 198 201 207 212 212
192 207 217 215 210 209 209 212 207 206 219 227 209 207 209 222 242 254 262 268 261 198 193 195 176 169 229 216 197 191 197 205 191 182 180 181 180 177 179 176 175 177 176 178 180 180 184 183 180 179 182 184 183 180 180 181 183 185 186 186 184 183 184 184 186 186 188 189 188 189 190 193 199 199 193 192 193 194 196 199 200 201 203 206 211 212
199 205 211 221 221 213 207 203 205 212 218 218 224 229 217 212 224 238 248 265 279 264 219 205 187 178 225 220 198 194 200 206 208 195 180 180 181 178 178 176 174 176 177 179 181 181 183 183 182 182 181 182 182 181 181 181 183 185 187 188 187 187 187 186 187 188 189 191 191 191 192 194 198 199 195 192 192 193 197 200 202 204 204 204 208 209
225 206 201 220 229 218 208 198 200 211 217 212 217 233 243 226 215 223 230 252 281 260 225 217 202 189 203 217 200 194 198 197 202 204 177 176 183 181 176 175 174 175 177 179 180 180 183 182 182 181 180 181 182 180 180 180 182 184 186 188 188 189 189 188 189 189 190 192 193 193 194 195 196 197 196 192 190 193 198 200 201 205 205 203 205 207
234 224 203 208 220 224 219 203 196 202 210 212 207 213 239 254 233 226 211 210 243 250 234 240 231 211 214 223 207 198 199 196 197 201 178 172 180 180 175 173 173 175 176 177 177 177 179 180 179 180 179 180 181 179 178 179 181 183 186 188 189 191 191 190 189 190 191 192 193 195 196 196 196 196 197 196 192 194 198 200 199 201 204 203 204 206
228 234 231 210 206 216 226 213 194 196 200 206 205 193 205 232 221 222 209 201 223 241 236 247 254 240 233 234 213 201 201 197 193 196 179 170 175 177 174 174 172 175 176 174 175 175 176 178 179 179 177 178 181 181 179 180 181 183 186 188 189 191 193 192 191 191 191 193 195 196 196 197 197 197 198 199 198 196 198 200 199 200 202 201 202 203
217 230 237 229 204 201 219 219 186 192 191 195 203 187 183 196 199 205 214 203 211 226 225 238 255 246 241 252 219 205 210 198 191 197 181 167 173 176 173 174 173 174 176 174 173 175 176 179 180 179 177 178 182 183 181 182 183 184 186 188 190 192 193 194 193 193 193 194 196 197 198 198 198 198 199 200 201 200 200 201 202 202 202 201 202 203
218 220 221 228 209 178 206 225 198 182 185 196 202 190 184 192 189 189 200 195 198 215 207 215 234 221 199 221 202 213 237 210 188 201 188 166 171 175 171 172 172 173 175 173 173 176 177 179 178 178 178 179 182 183 183 184 185 184 186 188 191 192 193 195 195 194 194 195 197 198 199 199 199 200 200 201 203 202 202 202 203 205 204 202 203 204
227 231 208 219 226 187 193 215 214 188 187 196 197 200 198 184 167 171 198 186 161 189 207 208 230 220 217 236 201 210 243 242 203 202 192 168 169 172 168 170 174 174 174 172 174 177 178 178 178 178 179 180 182 183 184 186 187 186 187 189 192 193 193 195 196 196 196 197 197 198 199 200 201 202 202 203 204 204 205 204 203 205 206 205 205 204
231 234 194 198 222 219 196 199 211 204 187 177 195 209 186 159 182 210 214 172 145 200 223 213 256 258 253 267 247 215 224 234 226 213 197 170 169 172 169 169 173 172 173 173 174 177 177 178 180 182 182 180 181 185 188 190 190 188 187 188 191 193 194 196 198 199 198 197 197 198 200 201 202 203 204 204 205 205 206 206 205 206 206 207 207 206
247 245 207 193 210 222 208 196 208 215 203 176 190 194 146 154 209 219 217 173 170 210 207 203 227 221 208 234 245 237 230 225 218 214 210 175 166 170 170 170 171 170 173 173 172 175 176 178 180 183 184 183 184 188 191 191 190 189 188 188 189 191 194 198 200 202 201 199 198 198 199 201 203 204 205 206 206 206 206 206 206 206 207 207 208 208
257 262 221 205 203 210 208 198 204 215 217 209 175 160 161 198 204 190 206 193 182 209 213 210 216 211 205 198 200 220 231 230 211 204 206 182 164 167 169 171 170 166 168 169 170 176 178 178 180 181 184 186 188 190 191 189 188 188 189 189 190 193 196 198 201 204 205 203 200 200 200 202 203 205 206 207 207 207 206 207 207 206 207 207 208 209
257 266 240 219 199 192 197 199 200 204 213 218 184 162 183 205 178 175 205 186 173 199 209 217 216 209 216 201 188 202 217 220 204 192 198 181 167 168 167 168 168 166 168 168 171 178 179 179 181 181 183 186 188 189 189 188 188 188 189 189 191 194 196 198 201 204 207 207 205 204 203 203 204 205 206 207 207 207 208 208 208 207 207 207 207 208
259 239 257 246 201 185 190 202 199 190 196 210 202 179 184 186 163 179 206 201 191 197 192 209 232 235 231 205 189 193 202 204 192 184 196 179 168 171 166 164 168 169 171 173 174 177 178 179 182 182 183 183 185 186 187 189 189 187 188 189 191 192 194 197 201 204 207 208 208 208 207 206 206 206 206 206 207 207 208 208 208 208 208 207 207 206
304 239 248 262 222 195 195 196 194 187 188 202 209 188 179 179 174 182 204 209 201 224 221 199 237 249 247 235 195 188 192 193 180 178 191 183 173 173 168 166 168 171 175 177 176 176 177 178 181 182 181 180 181 183 186 188 189 188 189 190 190 190 193 196 199 203 206 208 209 210 210 209 208 208 207 206 206 207 208 208 209 209 208 208 208 208
327 275 238 246 253 239 209 191 182 183 187 198 214 206 179 179 181 180 192 193 190 229 247 237 267 262 263 267 205 180 178 174 163 166 180 190 183 174 171 171 168 168 175 180 176 174 176 177 179 179 177 177 180 182 184 186 188 189 190 190 189 190 193 196 199 202 205 207 209 210 210 210 210 209 208 207 207 208 208 208 208 208 208 209 209 209
335 312 248 242 255 274 246 196 174 177 185 196 213 214 197 188 185 177 173 171 174 207 223 237 267 262 287 312 137 146 147 142 148 161 174 190 189 169 169 170 165 164 173 180 178 173 176 176 175 177 176 177 181 184 186 188 190 191 190 189 189 191 194 196 199 201 204 206 209 210 210 210 209 208 208 208 208 209 208 208 208 208 209 210 210 210
322 305 307 276 239 251 246 195 172 176 186 195 205 209 217 201 180 176 180 164 173 201 195 188 246 253 283 338 50 99 120 133 155 172 176 182 175 163 166 166 166 166 168 174 174 170 174 176 174 177 177 178 183 185 188 191 194 195 194 193 190 191 195 197 199 200 202 205 207 208 210 210 209 208 207 208 209 209 209 209 208 208 209 209 209 210
287 274 294 290 240 230 229 192 175 177 183 196 198 200 217 215 187 176 176 163 188 208 192 181 226 261 286 14 60 81 106 136 160 156 142 149 135 151 166 166 168 170 165 167 170 167 170 173 175 176 176 178 182 183 186 190 194 198 200 198 194 192 194 197 199 201 202 204 206 207 208 209 209 208 208 208 208 209 209 208 208 208 208 208 209 209
273 259 260 254 250 246 259 271 207 174 173 191 200 195 207 218 206 176 165 184 185 183 196 196 184 206 250 89 100 123 119 114 124 101 90 92 92 131 166 170 169 170 164 163 165 165 167 169 173 175 173 177 181 182 184 187 192 197 199 198 195 193 194 196 199 202 203 204 205 206 208 208 208 208 208 208 208 208 208 208 208 208 208 208 208 208
294 280 274 264 264 258 267 289 279 189 175 180 195 202 199 206 216 198 174 189 162 139 205 220 158 159 220 187 149 183 150 105 105 100 95 100 91 114 161 170 166 162 158 159 161 164 166 167 170 173 173 176 180 183 187 189 193 196 196 195 194 195 195 196 198 201 203 204 205 206 208 208 208 209 208 208 207 208 208 208 208 208 208 208 208 209
299 293 313 302 296 289 277 282 287 246 182 174 189 210 203 195 209 214 185 172 156 143 208 209 153 156 212 213 215 219 158 121 119 112 100 98 89 90 136 154 150 145 148 154 158 161 163 163 167 172 175 177 180 184 190 193 194 194 193 193 194 196 197 196 197 199 202 203 204 206 208 208 208 208 208 207 207 207 208 208 208 208 208 208 208 210
307 313 336 325 305 295 291 287 291 293 250 169 186 208 218 199 199 211 208 172 158 163 193 178 158 171 193 189 205 184 127 120 117 110 100 97 94 88 101 123 125 132 144 149 154 161 163 165 169 172 174 176 182 188 192 193 192 192 192 192 194 196 198 197 197 198 200 202 204 205 207 208 208 208 207 207 207 207 208 208 208 208 208 209 210 211
318 325 330 328 314 293 309 318 302 289 279 275 188 202 219 214 195 202 215 194 157 172 191 166 156 181 180 147 126 97 99 95 84 88 91 95 103 103 105 109 108 118 132 141 150 156 159 164 168 171 176 179 185 191 191 189 188 189 191 193 195 197 198 198 198 198 200 202 203 204 205 206 207 207 206 207 207 208 208 207 207 207 208 209 210 211
319 324 324 333 337 310 325 311 290 291 292 290 274 214 214 226 200 193 205 210 170 172 182 149 144 184 153 115 101 87 85 80 72 72 73 73 78 90 107 119 119 122 130 138 145 150 154 160 165 170 179 183 187 191 191 185 183 188 192 194 196 197 199 201 200 199 200 201 201 202 203 204 205 206 206 207 207 208 208 208 207 207 208 208 209 210
315 320 329 345 334 321 344 296 276 300 325 270 253 219 126 332 249 192 191 213 191 166 171 161 180 198 149 109 97 86 79 76 76 74 74 74 65 62 77 97 105 110 119 127 136 145 149 151 157 166 175 182 186 190 191 186 182 186 192 195 197 197 200 203 204 200 200 201 201 201 202 202 203 205 206 207 208 209 208 208 208 208 208 208 209 209
308 309 319 342 317 309 329 311 285 305 298 237 255 63 75 11 301 199 183 203 210 162 157 162 173 180 137 117 111 103 92 87 86 82 83 86 77 65 63 73 92 103 104 104 114 137 147 144 142 148 157 170 180 184 188 189 188 189 192 195 197 198 200 204 205 203 201 201 201 200 200 201 202 204 205 207 207 208 208 208 208 209 209 209 209 210
300 304 309 325 291 293 321 321 304 278 253 238 50 38 40 9 332 47 123 181 235 316 178 160 130 88 93 108 111 107 100 93 80 65 60 63 70 72 59 50 74 96 94 82 73 77 98 104 104 111 125 153 178 188 189 192 193 193 194 195 197 200 202 203 206 205 202 201 201 200 199 200 201 202 204 206 206 206 207 208 209 210 210 210 211 211
281 295 308 310 292 302 330 294 222 248 282 321 49 30 6 334 324 53 60 47 356 347 330 170 133 104 84 86 97 102 100 89 71 54 49 50 55 65 62 55 61 68 67 64 59 58 68 75 76 78 79 82 124 192 200 201 199 196 198 200 201 203 204 204 206 206 202 200 201 201 198 198 199 200 203 204 204 205 207 208 210 210 210 211 213 214
267 284 312 312 307 342 332 286 255 301 325 2 21 1 342 328 312 94 71 29 6 1 356 4 123 117 104 93 92 98 93 80 65 48 45 47 47 52 58 62 63 63 61 53 47 43 46 54 59 59 55 48 42 47 200 210 206 202 202 204 207 210 209 207 208 208 203 200 201 201 199 198 198 199 201 202 202 205 207 208 210 211 211 212 213 215
253 264 293 301 306 337 326 300 287 295 350 3 349 337 328 322 327 88 83 34 0 357 1 2 35 99 110 112 105 96 84 73 64 48 42 45 45 46 52 55 57 62 61 53 49 39 28 31 45 48 41 28 15 10 7 342 242 217 210 208 209 212 215 216 214 211 206 201 200 201 200 199 198 198 199 200 202 205 206 208 210 211 211 212 214 216
245 251 268 278 287 307 315 323 311 259 28 353 339 337 331 317 314 72 78 38 347 341 359 12 14 26 66 95 94 87 83 77 73 54 43 44 42 44 50 49 45 47 48 49 50 35 19 25 38 42 45 39 20 7 3 360 346 284 230 217 210 209 213 220 221 217 211 205 201 200 200 199 199 199 199 201 203 205 206 207 209 210 212 213 216 219
246 252 264 255 267 292 290 310 334 55 28 347 337 336 325 310 312 63 72 22 329 334 359 21 23 21 32 55 70 72 77 84 85 63 49 48 45 44 46 44 37 32 35 43 42 28 21 26 28 32 44 41 24 13 10 6 1 350 309 245 220 212 213 218 220 220 218 212 204 200 200 199 199 199 200 202 203 204 205 206 207 208 210 213 216 219
247 248 263 254 274 305 306 306 328 86 19 348 339 335 324 313 4 66 78 262 311 340 6 22 28 28 26 37 56 61 60 64 66 59 51 48 49 47 41 38 31 21 25 43 43 27 17 17 20 31 42 35 19 9 3 359 357 351 340 315 263 239 230 224 219 217 216 214 207 201 199 199 199 200 201 202 202 203 204 204 204 205 207 210 213 217
259 256 267 264 277 297 309 4 328 3 356 344 339 342 349 7 62 63 80 263 337 7 16 17 26 32 28 35 48 51 51 50 48 49 45 40 47 49 41 37 29 15 23 41 41 25 12 11 20 32 36 26 14 3 355 353 350 339 333 334 326 314 309 257 223 213 211 210 206 201 198 198 198 199 199 200 200 199 199 201 202 203 205 207 210 214
354 311 280 316 311 311 339 12 36 69 332 339 349 3 18 46 83 326 327 15 16 21 17 11 21 27 28 40 45 41 45 46 42 43 38 33 38 38 32 33 25 13 26 40 34 19 8 4 14 29 28 17 10 3 354 349 341 331 332 355 3 355 352 318 231 211 206 204 203 200 198 196 196 196 196 196 197 196 195 197 199 201 203 206 208 212
15 351 1 1 353 18 45 7 33 197 312 343 12 20 16 63 96 39 22 30 21 20 17 8 12 16 21 39 47 42 42 42 42 41 33 30 34 30 25 26 19 12 28 37 26 13 4 355 2 27 32 22 18 13 2 354 349 347 356 8 8 8 19 8 252 211 203 199 199 198 195 194 193 193 193 193 192 191 192 194 196 199 203 206 208 211
336 336 132 235 317 349 201 224 236 280 325 1 34 11 348 34 69 54 39 31 16 16 19 8 4 9 12 22 37 43 41 41 46 44 31 28 34 30 25 24 14 8 20 28 20 9 360 352 360 21 31 26 23 19 11 8 10 11 6 2 2 6 14 17 350 210 202 197 195 193 190 189 188 188 189 189 187 188 191 193 195 198 201 204 206 209
312 327 74 191 307 325 270 235 310 358 357 2 16 4 352 14 38 45 47 36 8 6 15 9 3 6 9 14 24 32 35 37 41 38 28 25 28 27 26 22 10 2 5 15 14 4 357 355 4 22 31 22 13 10 9 9 12 11 5 4 7 5 3 15 54 179 190 190 189 186 182 180 180 181 183 184 186 189 193 194 195 197 200 202 204 208
337 354 352 339 358 358 342 344 349 352 350 339 334 349 17 26 29 33 45 45 16 5 9 9 4 2 7 14 18 21 32 37 34 28 24 21 23 26 22 14 4 351 343 348 357 354 350 352 4 25 31 17 8 8 10 12 14 10 7 8 10 9 7 16 60 140 162 168 171 173 173 171 172 174 177 180 186 191 194 195 197 198 199 201 203 205
341 355 341 333 353 354 324 325 329 318 291 288 323 4 33 40 30 18 22 38 31 13 3 4 7 4 3 8 12 15 23 28 25 20 11 6 19 27 10 360 359 338 325 327 338 344 347 350 360 21 25 15 16 18 16 19 20 13 8 8 8 10 16 17 39 102 140 152 154 157 164 168 168 171 176 179 183 188 192 195 198 198 199 201 203 202
317 338 337 332 330 315 300 351 357 342 315 326 13 20 17 17 17 11 11 20 31 24 5 357 1 4 1 0 4 10 14 13 12 10 354 345 10 28 360 338 331 318 315 323 330 338 359 5 7 21 24 17 23 24 14 15 18 11 8 8 4 5 16 24 19 72 127 148 152 156 161 165 169 173 173 167 157 155 169 185 192 193 193 199 203 204
333 347 349 343 330 312 325 3 14 359 320 338 5 1 353 358 9 12 7 3 16 31 15 354 349 355 359 355 353 2 8 358 353 353 340 333 350 3 335 319 316 310 308 317 325 340 13 15 9 15 15 12 25 29 20 16 14 6 4 7 4 2 10 40 92 93 118 138 160 172 170 167 171 170 160 149 140 129 122 127 148 161 162 171 187 197
21 360 355 351 320 302 311 335 356 345 312 332 338 330 329 346 355 357 358 353 3 25 19 348 337 342 349 345 339 347 355 345 338 341 340 339 340 330 318 313 312 308 307 308 309 325 356 358 9 19 11 13 27 31 25 18 7 357 358 4 7 5 9 61 90 89 90 94 130 169 174 173 168 153 143 140 138 130 117 103 100 106 109 113 129 147
Height
715 730 732 728 728 726 725 725 726 727 726 727 728 728 728 731 730 717 709 697 690 712 723 719 726 729 724 722 720 719 721 729 736 737 740 742 743 745 747 749 751 753 752 751 753 755 757 760 762 766 769 773 776 779 782 784 788 791 793 796 798 801 804 807 809 812 814 816 819 821 822 824 826 828 829 831 832 833 834 834 835 836 838 839 840 842
716 732 726 716 718 717 718 720 721 724 724 724 727 728 725 724 723 708 701 693 685 707 721 714 721 726 721 719 717 716 721 727 731 735 737 738 740 740 742 745 747 748 747 748 751 752 755 757 760 763 766 769 772 775 778 781 785 788 791 794 796 799 802 804 806 808 811 813 816 818 820 822 824 826 828 829 831 832 833 833 834 835 836 838 839 841
726 725 713 708 710 711 714 715 719 723 723 725 725 729 730 721 716 707 694 688 686 703 718 714 720 724 717 714 713 713 717 721 721 726 731 733 737 738 739 741 743 745 747 747 749 750 751 754 757 760 762 765 768 772 775 778 782 785 789 791 794 796 799 802 804 806 809 811 814 817 819 821 823 825 827 828 829 831 832 832 833 834 835 837 838 840
727 713 703 705 705 709 715 713 716 722 723 726 725 731 732 718 720 721 701 688 688 696 707 712 718 721 716 714 712 708 710 715 716 717 722 726 730 732 732 734 737 741 745 746 746 747 747 750 753 756 759 762 765 769 773 776 779 782 785 789 791 794 796 799 802 805 807 810 813 817 819 820 822 824 826 827 829 830 830 831 832 833 834 835 837 838
713 699 695 701 702 706 715 714 716 723 726 725 721 725 725 715 716 718 703 691 690 693 696 708 727 727 718 721 719 708 706 712 715 715 719 722 723 725 727 729 732 734 737 740 743 744 744 746 749 752 756 759 762 766 768 771 775 778 782 785 788 791 794 796 800 803 806 809 812 816 818 820 821 823 825 826 827 827 828 829 830 831 832 834 835 837
703 691 690 700 703 703 711 715 713 718 726 725 718 715 713 710 708 706 701 698 709 717 701 706 744 745 719 718 720 712 711 713 713 714 718 719 719 722 726 728 729 730 731 733 735 738 741 743 746 749 753 756 759 761 765 768 771 775 779 782 786 789 791 794 797 801 804 807 810 812 815 816 817 819 820 821 823 824 826 827 828 829 831 832 834 835
696 688 687 697 702 703 708 711 707 708 722 726 712 704 704 705 705 704 703 706 721 728 703 698 738 750 729 719 714 711 714 712 711 714 714 714 717 719 722 725 726 728 729 731 732 733 736 739 742 746 749 752 755 758 762 766 769 773 777 780 783 786 789 792 795 798 801 804 806 809 810 812 814 815 816 818 820 822 824 826 826 828 829 831 832 833
687 690 691 692 697 703 707 708 700 699 717 720 700 696 703 703 706 704 704 709 711 710 704 697 715 739 739 723 707 704 712 712 711 715 714 712 713 714 716 719 721 724 726 728 731 731 733 735 737 741 744 747 751 756 760 764 767 770 774 777 780 783 786 789 792 795 798 801 803 806 808 810 811 813 814 817 819 821 823 824 825 826 827 829 830 831
680 690 692 689 696 701 700 697 692 693 707 706 689 689 696 699 703 701 704 711 703 708 724 711 706 736 743 719 701 702 709 714 712 711 712 710 709 710 711 712 714 717 719 722 725 727 728 730 733 737 741 745 749 753 757 761 765 768 771 775 778 781 784 786 789 792 795 798 800 803 805 807 809 811 813 815 817 819 821 823 824 824 825 827 828 830
677 678 680 684 691 692 688 685 683 690 698 692 684 686 689 692 696 698 705 710 707 720 735 717 707 733 743 720 708 710 711 712 708 703 704 704 704 705 705 706 709 712 715 717 719 721 723 726 730 734 739 743 747 750 754 758 763 767 770 773 776 778 781 783 786 789 792 795 797 800 802 804 807 809 811 813 815 817 819 820 822 822 823 824 826 827
670 665 668 674 678 676 675 676 675 681 685 682 685 692 695 695 694 699 702 706 721 734 729 712 702 719 738 725 709 707 703 698 697 695 698 701 700 700 699 701 705 708 711 713 715 718 720 723 727 732 736 740 744 748 752 756 760 764 768 771 773 776 778 781 783 786 788 791 794 796 798 801 804 806 809 811 812 814 816 817 818 820 821 822 823 825
673 670 668 663 663 664 668 673 671 671 674 681 690 698 709 709 704 710 711 713 738 744 721 705 698 710 733 724 700 692 684 679 684 687 692 699 700 698 697 697 699 703 706 709 713 716 719 723 726 729 733 737 742 745 748 752 756 760 764 768 771 774 776 778 780 783 785 788 791 793 795 798 800 803 805 807 809 810 812 814 815 817 819 820 822 823
679 674 666 660 656 657 669 678 676 673 674 684 693 703 722 730 727 734 734 729 740 736 710 699 702 712 720 704 685 682 676 671 673 673 679 690 694 694 694 695 696 698 702 705 709 713 716 720 721 724 729 733 737 740 743 747 751 755 760 764 767 770 773 776 777 780 782 785 787 790 792 795 798 800 802 804 806 807 809 811 813 814 816 817 819 821
689 678 666 664 659 651 662 678 686 685 681 687 695 704 723 736 744 752 745 735 737 727 705 695 703 714 711 691 673 671 669 665 663 662 666 675 682 686 687 688 691 693 696 699 703 708 711 714 716 719 724 728 732 736 739 743 746 750 755 759 763 766 769 772 774 776 779 781 783 786 789 792 794 797 799 801 803 804 806 808 810 811 813 814 816 817
699 694 670 664 661 652 657 665 671 675 679 682 680 690 708 717 731 743 739 736 735 724 709 703 708 713 709 688 665 658 657 655 657 656 656 664 670 675 678 682 686 689 691 694 698 702 705 708 711 714 719 724 728 732 736 740 743 746 750 754 758 761 765 769 772 773 775 777 780 783 786 789 791 793 796 798 800 802 804 805 807 809 810 812 813 815
691 688 660 652 651 647 655 654 650 663 680 678 669 684 699 694 703 717 718 716 718 721 717 710 706 696 686 671 654 653 654 649 654 654 654 663 666 669 677 680 683 686 687 690 694 698 701 703 707 710 715 719 723 728 733 736 739 742 745 749 754 758 761 765 768 770 771 774 777 779 783 785 788 791 793 795 797 799 801 803 804 806 808 810 811 813
685 678 652 649 650 642 647 648 643 657 675 676 675 685 682 672 685 707 713 702 707 729 725 708 705 694 684 677 659 656 659 653 653 653 654 661 662 666 674 675 678 681 682 685 689 693 697 699 703 706 710 714 719 723 727 730 734 737 741 746 751 756 759 762 765 767 769 771 773 776 779 782 785 788 790 792 794 796 798 800 802 804 806 808 810 812
676 676 651 646 654 642 634 641 642 641 652 669 680 676 668 671 681 696 714 716 721 739 725 705 709 706 704 698 671 660 666 660 655 652 652 657 661 665 669 669 672 674 677 680 683 688 692 695 699 702 705 709 712 716 720 725 731 735 739 743 748 752 756 759 763 765 767 768 770 772 775 778 781 783 786 788 790 793 795 797 799 801 804 806 808 810
663 678 658 638 647 641 629 643 655 643 636 651 661 657 667 693 699 696 710 722 731 740 725 707 705 701 700 694 674 666 667 660 655 651 650 655 660 663 666 667 668 670 675 679 682 686 689 691 695 697 701 705 708 712 717 723 728 733 737 740 744 748 751 756 760 764 767 768 769 770 771 774 776 779 782 785 788 790 792 794 796 799 801 803 805 807
657 678 671 637 630 637 637 648 663 658 643 642 649 652 661 680 691 693 696 702 715 728 722 712 707 696 682 670 663 662 657 653 653 650 649 652 654 657 662 665 667 670 673 676 679 683 685 687 690 693 697 701 705 711 715 720 724 727 732 736 740 744 748 753 758 761 765 767 768 769 769 770 773 775 779 781 785 787 789 791 793 795 797 800 802 804
655 669 676 648 627 637 647 645 648 654 652 653 660 666 667 669 674 683 687 686 695 712 715 713 711 690 658 643 647 649 645 644 645 644 646 648 648 651 654 659 663 666 668 671 674 677 680 683 685 688 694 698 703 708 712 715 719 722 727 730 734 738 743 748 753 757 761 764 766 767 768 769 771 773 776 778 781 783 785 788 790 792 795 797 799 801
670 665 668 660 644 643 641 628 626 635 642 650 658 662 665 668 675 691 701 688 682 696 700 702 708 683 643 629 633 634 634 634 634 637 642 643 644 646 647 651 656 659 662 665 667 672 676 679 682 685 690 695 699 703 707 711 715 718 722 724 728 732 737 742 748 752 756 760 763 764 765 768 769 771 774 776 778 780 782 784 787 789 792 794 796 797
686 671 661 660 650 639 627 615 617 625 629 639 647 648 652 659 669 690 705 693 684 689 684 687 700 678 637 623 623 622 624 626 627 631 636 638 639 641 643 645 649 654 657 660 662 667 671 674 678 683 687 692 695 699 703 706 710 714 717 720 723 727 732 737 743 747 752 756 759 761 763 765 767 769 772 773 775 776 778 781 783 786 788 790 792 794
691 674 662 659 647 635 624 612 612 617 626 641 644 640 644 651 656 667 677 677 684 690 684 692 703 676 636 618 614 615 619 622 625 628 632 635 634 636 640 642 647 652 655 657 660 663 667 671 676 681 685 689 692 696 699 703 706 710 713 716 719 722 727 732 738 743 748 751 754 757 760 762 763 766 768 770 772 773 775 778 780 783 785 787 789 791
710 692 680 677 666 657 648 635 630 628 630 641 643 638 640 642 646 655 659 666 681 686 681 694 702 675 639 622 616 617 622 625 626 626 628 630 631 634 637 638 644 650 653 657 659 662 666 670 675 679 682 685 688 692 696 700 704 707 710 713 715 718 723 729 734 739 742 746 750 753 756 758 760 762 764 766 768 770 772 775 777 779 781 783 785 787
718 701 693 693 688 681 672 658 647 639 635 638 638 638 639 639 644 655 662 674 685 680 674 685 689 668 644 631 626 625 627 629 629 626 626 628 630 633 635 637 641 645 651 655 657 662 665 668 672 675 677 681 684 688 692 697 701 705 708 710 713 716 720 725 730 734 738 741 744 748 750 753 755 757 759 761 763 766 769 771 773 775 777 779 781 783
711 694 686 689 687 680 669 652 633 627 636 643 641 639 640 639 640 648 663 677 678 676 677 674 669 665 654 642 636 631 629 633 635 633 632 631 630 632 635 638 639 641 647 650 654 660 664 667 669 671 674 678 681 685 689 693 697 701 704 707 710 713 717 722 727 730 733 736 739 742 745 747 749 752 754 756 759 762 764 766 769 770 772 775 777 780
709 695 680 675 672 664 655 642 627 622 630 637 639 640 639 638 639 647 661 664 660 673 685 667 655 665 661 645 639 635 631 636 639 636 635 633 630 631 634 637 640 642 645 648 653 658 662 665 668 669 672 675 678 683 687 690 694 697 699 702 705 710 713 717 722 726 729 732 735 737 739 742 745 747 749 752 755 758 760 762 764 766 768 771 773 775
714 700 680 671 665 653 642 635 628 625 625 626 632 636 635 635 639 646 652 650 649 666 676 660 653 663 657 642 639 635 631 635 637 633 632 632 630 631 635 638 642 646 649 651 654 657 660 664 666 668 671 673 676 681 684 687 690 692 695 698 701 705 709 712 717 721 724 727 729 732 735 738 741 743 746 749 751 753 755 757 760 762 764 767 768 770
717 702 685 679 670 653 642 635 630 629 627 627 630 630 631 633 635 640 644 641 642 651 655 652 655 656 647 638 635 631 628 630 631 629 631 633 633 635 639 643 645 648 650 653 655 657 659 662 664 667 670 672 675 679 681 684 686 689 691 694 697 701 704 708 712 715 718 721 724 727 731 734 737 739 742 745 746 748 750 753 756 758 760 762 764 766
720 708 692 685 676 660 646 639 637 635 632 633 633 629 629 632 632 637 640 638 642 647 646 649 657 654 640 631 632 631 629 630 634 635 636 637 636 637 641 645 648 650 652 654 656 658 659 661 664 666 669 671 673 675 678 680 683 686 688 691 694 697 701 704 707 710 713 716 720 723 726 729 733 735 738 740 742 744 746 749 751 753 756 758 760 762
722 712 694 687 687 671 652 650 649 638 633 638 639 634 633 635 634 634 634 635 639 645 648 653 659 654 638 630 633 636 634 637 642 641 641 641 640 640 643 646 649 651 653 654 657 658 660 661 663 665 666 668 670 673 675 677 680 683 685 688 691 694 698 701 703 705 709 712 715 719 721 725 728 730 733 735 737 739 742 745 747 749 752 753 755 758
725 718 703 699 702 682 660 658 653 647 655 658 643 631 632 635 633 628 629 631 630 635 647 655 651 642 632 631 638 642 642 644 645 644 644 644 643 645 646 647 650 652 652 654 656 657 659 659 660 662 663 665 667 670 672 674 677 680 682 685 689 691 695 697 699 702 704 707 711 713 716 720 723 725 728 730 733 736 738 741 743 745 747 749 751 753
727 723 711 707 710 695 672 660 657 667 680 662 629 618 624 630 632 628 628 628 624 625 632 637 635 631 629 632 639 643 644 644 642 640 641 641 644 647 648 648 651 652 652 653 654 655 656 657 658 660 661 664 666 669 671 673 675 677 680 683 686 688 691 693 695 698 700 703 706 708 712 716 718 721 724 726 729 732 734 737 739 741 743 745 747 749
728 723 713 707 708 699 681 674 684 691 673 637 616 615 619 623 625 625 626 628 630 631 626 625 631 634 633 633 635 638 640 639 639 640 640 641 645 649 652 653 652 652 654 655 655 656 656 657 658 660 662 664 666 668 670 672 674 676 678 680 683 685 687 689 692 694 696 698 701 704 707 710 713 716 719 722 725 728 730 732 734 737 739 741 742 744
726 720 714 709 704 698 691 690 692 679 645 621 620 621 622 625 624 630 647 655 652 650 640 630 630 631 634 636 634 635 636 637 642 647 646 646 648 650 655 657 655 656 659 659 660 659 658 659 660 662 663 664 666 668 669 670 672 674 676 678 680 682 684 686 688 689 691 693 696 699 701 704 708 712 715 719 722 724 726 728 730 732 735 737 739 740
719 716 715 714 705 702 705 695 675 658 645 643 650 647 644 643 631 633 659 670 659 654 650 640 631 627 633 639 637 634 635 642 656 662 655 651 653 653 655 657 657 659 661 660 661 661 660 661 662 662 663 664 666 668 669 670 671 672 674 676 678 679 681 683 684 685 687 689 691 694 697 700 704 707 711 714 717 719 721 723 726 728 731 733 735 737
712 712 715 718 710 703 709 701 680 674 675 677 677 662 647 643 630 625 653 675 668 660 659 654 646 636 633 637 638 635 640 658 678 678 664 658 657 655 657 658 658 660 662 662 663 663 664 664 663 663 664 664 666 668 669 671 672 672 673 674 675 677 679 680 680 681 683 685 687 691 694 697 700 703 706 709 711 714 717 719 722 725 727 730 731 732
709 706 707 716 715 706 709 709 696 690 691 688 678 659 645 643 628 622 659 693 686 669 665 664 661 652 642 640 641 642 656 679 692 683 669 663 661 659 661 663 661 662 662 663 665 666 667 667 666 665 666 666 667 668 669 671 672 672 673 672 673 675 675 676 677 679 681 682 685 688 691 693 696 699 702 704 707 710 713 716 719 722 725 727 728 730
710 709 708 716 717 707 706 708 699 695 697 689 674 661 651 639 624 640 692 715 693 675 672 669 668 666 656 651 651 655 670 686 689 680 670 665 664 663 664 666 666 666 665 665 666 667 667 667 667 667 668 669 669 669 669 670 671 672 672 672 672 672 672 672 674 677 679 681 682 685 687 690 693 696 698 701 704 707 710 713 716 719 721 724 726 728
713 712 711 714 714 708 708 708 702 699 698 688 678 666 648 635 645 682 717 715 691 681 677 671 672 673 667 663 664 669 676 678 676 674 670 667 669 670 669 669 669 668 669 669 669 669 669 669 669 670 671 672 672 671 671 671 671 672 672 671 671 671 671 671 672 674 677 678 680 682 684 686 689 692 695 698 701 704 707 710 712 715 718 720 723 725
719 716 712 712 713 711 709 708 707 705 696 685 681 668 649 657 691 712 709 698 689 685 679 674 676 677 674 672 673 675 677 674 671 673 673 673 675 675 674 674 673 672 673 673 673 674 674 673 673 673 674 674 674 674 673 673 672 672 671 671 670 670 670 669 670 671 673 675 677 679 681 684 687 690 693 696 699 702 704 707 710 712 715 718 720 722
721 720 717 712 709 709 712 714 718 719 703 686 685 680 673 688 711 709 696 692 690 684 681 680 678 678 679 680 678 678 677 675 674 675 676 677 678 678 678 678 677 676 677 677 678 678 678 677 677 676 677 677 677 676 675 674 673 672 671 671 670 669 668 667 667 668 669 671 673 675 678 681 684 687 690 693 696 699 701 704 707 710 712 714 717 718
722 725 726 722 715 719 729 729 724 719 706 693 695 701 699 699 701 698 696 696 691 687 687 686 681 680 682 683 683 682 681 680 680 680 681 682 682 682 683 682 681 681 681 681 682 682 681 681 680 679 679 679 678 678 678 676 675 673 672 672 670 669 668 666 666 666 667 668 670 672 675 678 681 684 687 690 693 696 699 702 704 707 709 711 713 715
725 722 726 728 721 719 724 721 713 709 705 699 701 705 703 697 695 697 699 699 696 693 692 690 688 685 683 683 684 684 683 684 684 685 686 687 687 687 687 686 686 686 685 685 686 685 684 683 682 681 681 680 680 680 679 678 677 675 673 672 671 669 668 667 666 666 666 668 669 671 673 676 679 682 684 687 690 693 696 699 702 704 707 708 710 712
721 715 718 723 720 714 711 708 706 707 706 704 703 704 703 700 698 698 701 703 702 698 695 694 694 690 688 688 686 685 685 686 686 686 688 688 688 689 688 688 688 688 688 688 688 687 686 685 683 683 682 681 681 681 680 679 678 676 675 673 671 670 669 668 667 666 667 668 669 671 673 675 678 681 683 686 689 691 694 697 699 702 704 705 707 709
719 716 718 719 720 720 717 711 707 707 707 706 706 704 702 702 701 700 702 704 703 700 698 696 695 693 692 691 689 689 688 687 688 690 690 690 690 690 690 690 691 691 691 690 689 688 687 686 685 684 683 683 682 681 681 680 679 677 676 674 672 670 669 668 668 667 667 668 670 671 673 675 677 680 683 685 688 690 693 695 697 699 701 703 705 706
722 719 720 720 721 723 720 713 708 706 703 703 705 706 705 706 704 701 701 701 702 701 699 697 696 696 695 692 691 690 689 689 691 692 691 691 692 691 691 692 692 692 692 691 690 689 688 687 686 685 684 684 683 682 682 681 679 678 676 674 673 671 670 669 669 668 668 669 670 671 673 675 677 680 682 685 687 689 691 693 695 697 698 700 702 704
723 724 725 722 721 721 718 714 714 713 708 705 707 709 708 707 706 704 702 701 701 701 700 698 697 697 696 695 692 691 692 692 692 692 693 693 693 693 693 693 693 693 693 691 690 689 688 687 686 685 685 685 684 683 682 681 680 679 677 675 674 672 670 670 669 669 670 670 671 672 673 675 678 679 681 684 686 688 690 692 693 695 697 699 701 703
729 734 732 730 731 730 724 723 726 728 725 718 714 713 710 708 708 708 706 703 702 702 703 702 701 700 699 698 695 694 696 696 694 694 695 694 693 693 693 693 693 693 693 692 691 689 688 687 687 686 686 685 684 684 683 682 680 679 678 676 674 672 671 670 669 670 670 671 671 672 673 675 677 679 680 683 685 687 690 692 694 695 697 698 700 702
738 740 738 739 741 736 728 726 728 731 731 725 718 714 711 709 709 710 709 707 706 705 706 707 706 705 704 702 700 699 699 699 697 696 696 695 694 693 693 693 694 693 692 692 690 689 688 688 687 687 686 686 685 685 684 682 681 680 679 677 675 674 672 671 670 670 671 671 672 673 673 675 677 678 680 682 684 686 689 692 695 697 698 700 701 702